Regional Weather Roundup
Issued by NWS

Home | Current Version | Previous Version | Graphics & Text | Print | Product List | Glossary On
Versions: 1 2 3 4 5 6 7 8 9 10 11 12 13 14 15 16 17 18 19 20 21 22 23 24 25 26 27 28 29 30 31 32 33 34 35 36 37 38 39 40 41 42 43 44 45 46 47 48 49 50
000
ASUS43 KBIS 282220
RWRND

NORTH DAKOTA REGIONAL WEATHER ROUNDUP
NATIONAL WEATHER SERVICE BISMARCK ND
500 PM CDT THU AUG 28 2014

NOTE: "FAIR" INDICATES FEW OR NO CLOUDS BELOW 12,000 FEET WITH NO
SIGNIFICANT WEATHER AND/OR OBSTRUCTIONS TO VISIBILITY.


NDZ001>003-009>011-017-282300-
NORTHWEST NORTH DAKOTA

CITY           SKY/WX    TMP DP  RH WIND       PRES   REMARKS
WILLISTON      MOSUNNY   88  54  31 S13       29.78F
MINOT          SUNNY     85  56  37 S12       29.79F
MINOT AFB      SUNNY     86  58  38 S12       29.78F
$$

NDZ018>021-031>035-040>046-282300-
SOUTHWEST NORTH DAKOTA

CITY           SKY/WX    TMP DP  RH WIND       PRES   REMARKS
BISMARCK       CLOUDY    76  68  76 SE9       29.86F
DICKINSON      MOSUNNY   85  53  33 NW7       29.85F
GARRISON         N/A     83  63  50 S8        29.83F
HETTINGER ARPT PTSUNNY   80  55  42 SE12      29.89F
$$

NDZ004>008-012>016-024-026-027-054-282300-
NORTHEAST NORTH DAKOTA

CITY           SKY/WX    TMP DP  RH WIND       PRES   REMARKS
GRAND FORKS    PTSUNNY   74  66  76 S13       29.87S
GRND FRKS AFB  CLOUDY    74  69  86 S13       29.87F
DEVILS LAKE    PTSUNNY   77  64  65 S12       29.83F
$$

NDZ022-023-025-028>030-036>039-047>053-282300-
SOUTHEAST NORTH DAKOTA

CITY           SKY/WX    TMP DP  RH WIND       PRES   REMARKS
FARGO          CLOUDY    71  64  78 SE18      29.90F
JAMESTOWN      CLOUDY    70  66  87 S9        29.87F
$$



USA.gov is the U.S. government's official web portal to all federal, state and local government web resources and services.